Estación de Codegua
Ultimos registro cada 15 minutos 39
| N° | Estación | Fecha / Hora | Temperatura | Humedad | Lluvia | Velocidad | Dirección | Radiación | Presion |
| 39 | Codegua | 09-05-2026 09:30 | 7,9 | 93,5 | 0 | 0 | 107 | 323,1 | 958,3 |
| 38 | Codegua | 09-05-2026 09:15 | 7,1 | 98,3 | 0 | 0 | 114 | 280,6 | 958,3 |
| 37 | Codegua | 09-05-2026 09:00 | 6,3 | 99,7 | 0 | 0 | 129 | 128,1 | 958,3 |
| 36 | Codegua | 09-05-2026 08:45 | 5,4 | 100 | 0 | 0 | 129 | 46,9 | 958,3 |
| 35 | Codegua | 09-05-2026 08:30 | 4,3 | 100 | 0 | 0 | 129 | 33,1 | 958,2 |
| 34 | Codegua | 09-05-2026 08:15 | 3,3 | 99,9 | 0 | 0 | 129 | 21,9 | 958,3 |
| 33 | Codegua | 09-05-2026 08:00 | 2,8 | 99,7 | 0 | 0 | 129 | 16,9 | 958,3 |
| 32 | Codegua | 09-05-2026 07:45 | 2,3 | 99,4 | 0 | 0 | 129 | 5,6 | 958,3 |
| 31 | Codegua | 09-05-2026 07:30 | 2,6 | 99,2 | 0 | 0 | 129 | 3,1 | 958,3 |
| 30 | Codegua | 09-05-2026 07:15 | 3,3 | 99,1 | 0 | 0 | 129 | 0,6 | 958,2 |
| 29 | Codegua | 09-05-2026 07:00 | 4,5 | 99,4 | 0 | 0 | 129 | 0,6 | 958,3 |
| 28 | Codegua | 09-05-2026 06:45 | 4,3 | 99,3 | 0 | 0 | 129 | 0,6 | 958,3 |
| 27 | Codegua | 09-05-2026 06:30 | 4,7 | 99,6 | 0 | 0 | 129 | 0,6 | 958,5 |
| 26 | Codegua | 09-05-2026 06:15 | 5,3 | 100 | 0 | 0 | 129 | 0,6 | 958,4 |
| 25 | Codegua | 09-05-2026 06:00 | 5,2 | 100 | 0 | 0 | 129 | 0,6 | 958,4 |
| 24 | Codegua | 09-05-2026 05:45 | 5,3 | 100 | 0 | 0 | 129 | 0,6 | 958,2 |
| 23 | Codegua | 09-05-2026 05:30 | 6,1 | 100 | 0 | 0 | 129 | 0,6 | 958,3 |
| 22 | Codegua | 09-05-2026 05:15 | 6,5 | 100 | 0 | 0 | 129 | 0,6 | 958,3 |
| 21 | Codegua | 09-05-2026 05:00 | 6,6 | 100 | 0 | 0 | 102 | 0,6 | 958,3 |
| 20 | Codegua | 09-05-2026 04:45 | 6,4 | 100 | 0 | 0 | 88 | 0,6 | 958,2 |
| 19 | Codegua | 09-05-2026 04:30 | 6,2 | 100 | 0 | 0 | 126 | 0,6 | 958,2 |
| 18 | Codegua | 09-05-2026 04:15 | 6,4 | 100 | 0 | 0 | 114 | 0,6 | 958,4 |
| 17 | Codegua | 09-05-2026 04:00 | 6,6 | 100 | 0 | 0 | 121 | 0,6 | 958,5 |
| 16 | Codegua | 09-05-2026 03:45 | 6,5 | 100 | 0 | 0 | 111 | 0,6 | 958,5 |
| 15 | Codegua | 09-05-2026 03:30 | 6,6 | 100 | 0 | 0 | 110 | 0,6 | 958,6 |
| 14 | Codegua | 09-05-2026 03:15 | 6,2 | 100 | 0 | 0 | 111 | 0,6 | 958,9 |
| 13 | Codegua | 09-05-2026 03:00 | 6 | 100 | 0 | 0 | 111 | 0,6 | 958,8 |
| 12 | Codegua | 09-05-2026 02:45 | 5,8 | 100 | 0 | 0 | 118 | 0,6 | 958,9 |
| 11 | Codegua | 09-05-2026 02:30 | 6,1 | 100 | 0 | 0 | 119 | 0,6 | 959,2 |
| 10 | Codegua | 09-05-2026 02:15 | 6,3 | 100 | 0 | 0 | 119 | 0,6 | 959,2 |
| 9 | Codegua | 09-05-2026 02:00 | 6,2 | 99,9 | 0 | 0 | 119 | 0,6 | 958,9 |
| 8 | Codegua | 09-05-2026 01:45 | 6,2 | 99,6 | 0 | 0 | 119 | 0,6 | 958,9 |
| 7 | Codegua | 09-05-2026 01:30 | 6,6 | 99,2 | 0 | 0 | 135 | 0,6 | 958,8 |
| 6 | Codegua | 09-05-2026 01:15 | 6,9 | 98,9 | 0 | 0 | 208 | 0,6 | 958,5 |
| 5 | Codegua | 09-05-2026 01:00 | 6 | 98,4 | 0 | 0 | 208 | 0,6 | 958,8 |
| 4 | Codegua | 09-05-2026 00:45 | 5,4 | 98,1 | 0 | 0 | 208 | 0,6 | 958,9 |
| 3 | Codegua | 09-05-2026 00:30 | 5,2 | 97,8 | 0 | 0 | 208 | 0,6 | 959 |
| 2 | Codegua | 09-05-2026 00:15 | 5,5 | 97,6 | 0 | 0 | 208 | 0,6 | 959 |
| 1 | Codegua | 09-05-2026 00:00 | 5 | 97,5 | 0 | 0 | 208 | 0,6 | 959,4 |